User: anonymous   Login
Location: Abraham Lincoln Continuation High School
(33.9711°N, 117.3662°W)
Time: 09:17:39
(UTC+00:00)
Language:

Cosmos 1934 Rocket - Orbit

View from above orbital plane
View from above orbital plane
View from above satellite
View from above satellite

Ground track
Ground track

The orbit data is extracted from the following two-line orbital elements,

1 18986U 88023B   21170.86050340 -.00000004  00000-0 -18983-4 0  9999
2 18986  82.9544  34.6753 0043005  69.4400 291.1364 13.78652599672038
Epoch (UTC): 19 June 2021 20:39:07
Eccentricity: 0.0043005
inclination: 82.9544°
perigee height: 937 km
apogee height: 1000 km
right ascension of ascending node: 34.6753°
argument of perigee: 69.4400°
revolutions per day: 13.78652599
mean anomaly at epoch: 291.1364°
orbit number at epoch: 67203

The dashed part of the orbit path shows where the satellite is in the earth's shadow,  

DLR